Location: Munkebjergskolens Observatorium
(55.3864°N, 10.3987°E)
Time: 06:16:30
(UTC+02:00)

CAS-6 - Visible Passes

Search period start: 29 March 2023 00:00
Search period end: 08 April 2023 00:00
Orbit: 612 x 632 km, 97.9° (Epoch: 28 March)

Date Brightness Start Highest point End Pass type
(mag) Time Alt. Az. Time Alt. Az. Time Alt. Az.
29 Mar ? 22:42:29 45° ENE 22:42:29 45° ENE 22:46:37 10° N visible
30 Mar ? 00:19:40 26° WNW 00:19:40 26° WNW 00:22:35 10° NNW visible
30 Mar ? 21:23:14 11° ENE 21:24:53 13° NE 21:26:55 10° NNE visible
30 Mar ? 23:00:26 62° NE 23:00:26 62° NE 23:04:35 10° N visible
31 Mar ? 00:37:38 20° WNW 00:37:38 20° WNW 00:40:07 10° NW visible
31 Mar ? 21:41:11 15° ENE 21:42:31 17° NE 21:45:21 10° NNE visible
31 Mar ? 23:18:23 78° N 23:18:23 78° N 23:22:30 10° NNW visible
01 Apr ? 00:55:35 14° WNW 00:55:35 14° WNW 00:57:25 10° NW visible
01 Apr ? 21:59:08 20° ENE 22:00:11 22° ENE 22:03:34 10° N visible
01 Apr ? 23:36:20 62° WNW 23:36:20 62° WNW 23:40:20 10° NNW visible
02 Apr ? 01:13:32 10° WNW 01:13:32 10° WNW 01:13:48 10° WNW visible
02 Apr ? 22:17:05 27° E 22:17:53 29° ENE 22:21:40 10° N visible
02 Apr ? 23:54:17 44° W 23:54:17 44° W 23:58:07 10° NNW visible
03 Apr ? 22:35:01 38° E 22:35:37 40° ENE 22:39:43 10° N visible
04 Apr ? 00:12:13 32° W 00:12:13 32° W 00:15:50 10° NNW visible
04 Apr ? 21:16:30 10° ENE 21:18:07 12° NE 21:19:43 10° NNE visible
04 Apr ? 22:52:58 53° E 22:53:23 55° ENE 22:57:41 10° N visible
05 Apr ? 00:30:10 23° W 00:30:10 23° W 00:33:24 10° NW visible
05 Apr ? 21:33:42 12° E 21:35:42 16° NE 21:38:17 10° NNE visible
05 Apr ? 23:10:54 73° ESE 23:11:11 78° ENE 23:15:35 10° NNW visible
06 Apr ? 00:48:06 17° W 00:48:06 17° W 00:50:47 10° NW visible
06 Apr ? 21:51:38 16° E 21:53:20 20° NE 21:56:32 10° N visible
06 Apr ? 23:28:50 73° SW 23:29:02 75° WSW 23:33:26 10° NNW visible
07 Apr ? 01:06:01 12° W 01:06:01 12° W 01:07:44 10° WNW visible
07 Apr ? 22:09:34 22° E 22:11:00 26° ENE 22:14:40 10° N visible
07 Apr ? 23:46:45 52° WSW 23:46:55 52° W 23:51:14 10° NNW visible
